Location: Newark
(40.9833°N, 0.0333°W)
Time: 02:14:21
(UTC+00:00)

deb Explorer IX - Pass Details

Date: 29 October 2020
Orbit: 537 x 1105 km, 38.8° (Epoch: 02 December)

Event Time Altitude Azimuth Distance (km) Brightness Sun altitude
Rises 04:46:55 0° 231° (SW) 3,243 - -19.6°
Reaches altitude 10° 04:49:20 10° 224° (SW) 2,406 - -19.1°
Exits shadow 04:50:24 16° 219° (SW) 2,066 ? -18.9°
Maximum altitude 04:54:44 42° 155° (SSE) 1,278 ? -18.1°
Drops below altitude 10° 05:00:58 10° 87° (E) 2,778 ? -16.9°
Sets 05:03:57 0° 81° (E) 3,799 ? -16.3°
